Location: Bukit Setapoh
(2.2500°N, 113.8000°E)
Time: 00:30:51
(UTC+00:00)

Cosmos 1758 Rocket - Pass Details

Date: 25 July 2021
Orbit: 602 x 635 km, 82.5° (Epoch: 22 September)

Event Time Altitude Azimuth Distance (km) Brightness Sun altitude
Rises 11:07:33 0° 170° (S) 2,865 6.7 -7.8°
Reaches altitude 10° 11:09:54 10° 162° (SSE) 1,955 5.8 -8.3°
Maximum altitude 11:13:54 38° 94° (E) 929 4.0 -9.2°
Drops below altitude 10° 11:17:53 10° 25° (NNE) 1,938 6.1 -10.2°
Sets 11:20:11 0° 17° (NNE) 2,837 7.0 -10.7°
